Simultaneous Nadir Overpasses (SNOs) Predictions

Prediction of SNOs near equator between AQUA and NPP Satellite Orbit:

Table of predicted SNOs near equator for the next 14.0 days since TLE Epoch: 4/24/2021
Index Date (AQUA) Time (AQUA) AQUA Lat,Lon Date (NPP) Time (NPP) NPP Lat,Lon Distance(km) Time Diff (sec)
1 04/25/2021 08:41:53 4.78, 72.71 04/25/2021 08:32:17 4.72, 72.37 38.36 576
2 04/25/2021 09:30:00 -0.27,-118.67 04/25/2021 09:21:39 -0.12,-119.27 68.47 501
3 04/25/2021 10:18:16 -4.29, 49.92 04/25/2021 10:11:10 -4.50, 49.06 97.92 426
4 04/28/2021 00:57:57 3.31,-171.10 04/28/2021 00:48:45 3.21,-171.52 47.73 552
5 04/28/2021 01:46:03 1.27, -2.47 04/28/2021 01:38:07 1.40, -3.15 77.77 476
6 04/30/2021 16:26:12 -8.02, 136.16 04/30/2021 16:16:12 -8.07, 135.87 31.63 600
7 04/30/2021 17:14:00 1.78, -54.89 04/30/2021 17:05:13 1.70, -55.40 57.21 527
8 04/30/2021 18:02:07 2.73, 113.73 04/30/2021 17:54:35 2.91, 112.96 87.07 452
9 05/03/2021 08:41:48 -4.93,-107.30 05/03/2021 08:32:10 -4.86,-107.62 36.82 578
10 05/03/2021 09:30:03 0.33, 61.30 05/03/2021 09:21:40 0.19, 60.72 66.66 503
11 05/03/2021 10:18:10 4.19,-130.08 05/03/2021 10:11:03 4.36,-130.93 96.40 427
12 05/06/2021 00:57:51 -3.42, 8.91 05/06/2021 00:48:38 -3.34, 8.50 46.35 553
13 05/06/2021 01:46:06 -1.18, 177.50 05/06/2021 01:38:08 -1.32, 176.83 76.11 478
